Wind_Speed
32 31 31 31 30 29 27 26 26 25 25 25 24 24 24 24 23 23 23 22 21 20 19 20 20 20 21 23 24 27 28 27 24 21 19 12 3 4 7 9 11 12 13 13 13 13 14 15 17 18 17 17 18 19 21 21 19 19 17 15 13 11 11 11 10 9 11 12 11 11 11 10 11 11 10 10 10 11 11 11 12 12 12 13 14 15 17 18
33 32 31 30 30 30 29 27 25 24 25 25 25 24 24 24 24 23 23 22 21 20 18 18 19 19 20 22 23 25 27 27 24 20 18 10 1 4 7 9 9 11 12 12 12 12 12 13 13 15 15 15 15 16 18 17 16 17 16 13 12 11 10 9 8 8 9 10 10 10 9 8 9 9 9 10 11 11 11 11 11 13 14 15 16 17 18 19
35 33 31 30 30 30 29 28 26 24 24 25 25 25 25 24 24 23 23 22 21 21 19 17 19 18 18 20 21 23 25 26 24 19 16 9 2 5 8 9 9 10 11 10 10 10 9 9 10 12 12 11 10 12 14 14 13 13 13 11 10 9 8 6 6 6 7 7 8 7 6 6 6 6 7 8 10 10 11 12 13 15 16 16 17 18 19 20
37 36 34 32 30 29 29 29 27 25 24 24 25 25 25 25 25 24 23 23 22 21 19 17 18 18 17 19 20 21 23 25 24 19 15 9 3 7 9 8 8 8 8 7 7 7 6 5 6 8 9 9 10 10 11 10 9 10 9 9 9 8 5 4 4 4 5 6 6 6 5 5 5 6 6 7 9 11 13 15 16 17 17 18 19 20 21 23
38 38 37 35 33 31 30 29 29 26 24 24 25 25 26 25 24 25 24 23 22 21 20 18 17 18 17 17 19 20 21 23 23 19 15 9 5 7 7 6 6 6 5 4 4 3 3 3 4 6 8 8 9 9 8 6 6 7 7 6 7 6 5 3 1 2 4 5 6 6 5 6 7 8 9 10 12 14 16 17 19 19 19 20 21 23 24 26
41 39 39 38 36 34 32 30 29 28 26 24 25 25 26 26 25 25 25 24 23 22 20 18 17 18 16 16 17 19 20 21 22 19 14 9 6 8 6 4 4 4 3 2 2 1 2 2 2 5 7 6 7 7 6 4 3 4 4 4 4 5 4 3 2 3 4 5 6 7 7 8 9 10 11 12 14 16 18 19 20 21 22 23 24 25 27 28
45 43 41 41 40 38 36 33 31 30 28 25 24 25 26 26 26 25 25 25 25 22 20 19 18 17 16 15 16 17 19 20 21 20 15 10 7 10 8 5 4 3 3 1 1 0 0 1 2 4 5 4 4 4 3 3 1 1 1 1 3 5 6 6 6 7 7 7 8 8 9 11 12 12 12 13 15 17 19 20 22 23 24 25 26 27 28 29
48 47 45 43 43 41 39 37 34 32 30 27 24 24 26 27 26 25 25 26 25 24 21 19 19 18 16 15 15 16 16 18 19 20 16 11 8 11 12 8 6 5 3 2 2 1 1 2 2 2 1 2 3 4 5 5 4 3 3 3 5 7 8 9 10 11 12 12 12 11 11 13 14 14 14 15 16 18 20 21 23 24 25 27 28 29 30 30
48 49 48 47 46 45 42 40 38 35 32 30 27 24 24 26 27 26 25 26 26 25 22 20 19 19 17 15 15 15 15 16 18 18 17 12 9 11 14 12 9 7 6 4 3 2 2 2 2 2 3 3 4 6 7 7 5 4 4 4 6 7 8 9 10 12 13 14 15 15 15 16 16 17 18 19 20 21 22 24 25 26 27 28 29 29 28 26
48 49 49 49 48 48 46 43 41 39 35 32 30 26 23 25 27 27 27 26 26 26 24 21 19 19 18 15 15 15 14 15 16 17 17 14 10 10 14 15 13 10 8 6 5 4 3 3 4 3 2 2 5 5 7 5 2 2 3 4 5 6 6 8 10 12 13 14 14 15 16 17 18 19 20 21 23 24 25 26 26 26 26 25 24 21 18 16
48 49 49 50 50 50 49 47 44 41 38 35 33 30 25 23 26 28 28 27 27 27 25 22 20 19 19 17 14 15 14 14 15 16 16 15 11 10 13 16 15 13 10 9 8 6 4 3 3 2 1 2 3 3 3 1 2 4 5 6 7 8 9 9 11 12 13 14 15 15 16 16 17 17 18 19 20 20 21 21 20 20 18 16 13 11 11 10
49 49 49 50 50 51 50 49 47 44 41 38 35 33 28 23 24 28 29 29 28 27 26 24 20 20 21 19 15 14 15 14 14 15 15 15 13 10 11 14 15 14 12 11 9 7 5 3 2 1 0 1 2 2 2 2 4 6 8 9 10 11 11 11 12 12 13 13 12 12 13 13 13 12 12 12 12 11 11 11 11 10 8 7 6 7 8 9
49 49 50 50 50 51 51 50 49 47 44 41 38 36 32 26 23 26 30 30 29 28 27 25 22 20 22 21 17 14 15 15 14 15 15 14 13 11 9 11 12 13 13 12 10 8 6 3 3 1 0 0 1 2 3 4 5 8 9 9 11 10 10 10 9 7 5 4 3 3 5 5 6 5 4 4 3 3 3 3 3 3 3 4 5 7 7 8
48 49 50 50 51 51 52 51 50 49 47 45 42 39 36 32 25 24 30 32 31 29 28 27 24 21 23 23 19 16 16 16 15 14 15 14 13 11 9 9 9 12 14 12 11 9 6 4 3 2 1 2 2 3 4 6 8 9 9 10 10 8 7 7 5 2 3 3 4 3 2 2 2 2 3 4 4 3 3 3 3 3 3 4 5 5 6 6
48 49 50 51 51 51 52 52 51 49 48 49 46 42 38 35 30 25 27 32 32 31 29 28 26 24 24 24 22 18 17 17 16 15 15 15 13 12 10 9 10 11 13 13 11 9 6 4 3 2 2 3 4 5 6 7 9 10 10 11 10 7 5 3 2 2 3 2 4 6 6 5 6 7 8 7 7 6 5 4 3 2 1 2 2 2 1 1
47 49 50 51 52 52 52 52 52 50 49 50 50 47 40 35 33 28 25 30 33 33 31 29 27 26 25 26 24 21 19 18 17 16 16 15 14 13 11 10 10 11 12 13 11 8 7 5 4 3 4 5 5 6 7 9 10 11 10 11 10 6 3 1 1 2 3 2 5 9 10 10 10 10 9 8 8 7 6 4 3 2 2 3 4 4 5 5
47 48 50 51 52 53 53 52 52 51 50 50 51 50 44 37 33 30 26 27 32 34 33 31 29 28 27 28 27 24 21 19 18 18 17 15 15 15 13 11 11 11 12 12 11 9 8 7 5 5 6 5 5 5 6 8 10 10 10 10 9 6 3 1 1 2 2 3 8 11 13 13 12 11 10 9 9 8 6 5 5 6 7 8 9 10 10 11
47 47 49 51 52 53 53 53 52 51 51 52 52 51 48 41 35 31 28 25 29 35 36 34 32 30 29 29 28 26 24 22 20 20 19 17 15 17 17 14 12 12 13 12 12 11 10 8 6 6 6 5 4 5 6 8 9 10 11 10 8 6 3 1 1 1 2 6 9 12 14 15 14 12 10 9 8 7 7 7 8 10 12 12 12 13 14 14
47 47 48 50 51 53 54 54 52 52 52 54 53 51 50 45 39 34 30 26 26 33 38 38 35 32 32 30 29 28 27 25 23 21 22 20 16 17 18 17 14 13 14 14 14 13 12 9 7 7 7 4 3 5 7 8 9 10 11 10 6 4 3 2 2 2 5 8 11 13 13 13 13 12 9 7 7 8 9 10 12 14 14 14 14 15 16 16
48 48 48 50 51 53 54 55 54 52 53 55 54 52 50 48 43 37 33 29 25 31 38 40 38 35 33 32 31 30 29 28 25 23 24 23 19 17 18 19 18 15 15 15 16 15 13 11 10 10 8 6 4 5 7 8 9 8 9 9 5 2 1 2 4 5 8 11 12 13 13 12 12 11 9 8 8 10 11 13 14 15 16 16 16 16 17 18
49 49 49 49 51 53 54 56 55 54 54 56 56 53 51 49 46 41 36 32 27 28 37 41 40 37 34 33 33 31 31 30 27 25 26 25 22 19 18 20 21 20 18 17 17 17 16 15 13 12 10 8 6 4 6 7 7 6 7 8 6 1 1 2 5 6 9 12 13 13 12 12 12 11 11 11 10 11 13 14 16 16 17 17 17 18 19 20
49 49 49 50 51 53 54 56 56 55 55 57 57 54 52 50 47 44 40 35 29 27 34 41 43 40 35 35 34 32 32 32 30 29 28 26 24 22 19 19 21 23 22 20 19 19 19 18 15 13 11 9 7 4 5 7 7 6 6 7 5 2 3 4 6 7 11 13 13 13 13 13 14 14 14 13 12 12 14 15 16 17 18 19 19 20 22 23
50 50 50 50 51 52 54 56 57 57 56 58 58 55 52 50 48 46 42 39 32 27 30 39 44 42 37 34 34 34 35 34 33 32 30 27 26 25 22 19 20 22 25 24 21 21 21 20 16 14 12 9 8 6 6 7 7 7 7 6 4 3 4 7 8 9 12 14 13 13 14 15 17 16 15 14 14 14 14 16 17 18 19 20 21 22 23 24
51 51 51 51 51 53 55 56 58 58 58 59 59 57 54 51 49 47 44 41 35 28 28 35 43 43 38 35 35 38 38 34 34 34 32 29 28 27 25 22 20 21 23 25 24 23 22 20 18 15 13 11 10 7 6 7 7 7 6 5 3 4 8 10 10 10 13 14 13 14 16 18 18 17 16 16 15 15 15 16 18 19 20 20 22 23 25 25
51 52 52 52 51 53 55 57 59 60 60 60 59 58 56 53 50 48 46 43 38 31 28 31 39 43 39 38 39 40 38 36 36 36 35 32 29 28 27 25 22 20 22 24 25 24 22 21 18 15 13 12 11 9 7 8 8 7 6 3 4 7 10 12 10 10 13 15 15 15 17 19 19 18 17 17 16 15 15 16 18 20 21 21 22 24 25 26
53 52 53 53 52 53 56 58 60 61 62 61 59 59 58 55 51 49 47 45 39 33 31 29 34 42 41 40 43 41 40 41 39 37 38 35 30 29 29 27 24 22 22 23 24 24 23 21 19 16 14 13 13 12 9 8 9 9 6 4 6 8 10 10 10 10 12 15 17 17 17 18 19 19 19 18 17 15 14 15 18 20 21 22 23 24 25 26
54 54 53 54 54 55 57 59 62 63 63 61 60 60 59 57 53 50 48 46 41 34 33 31 30 39 42 42 45 44 44 45 41 38 40 38 33 31 30 30 28 24 23 22 22 24 24 23 20 18 16 15 15 14 12 10 10 9 7 6 7 8 9 8 9 10 11 14 17 18 17 18 19 19 19 18 16 14 14 15 18 20 21 22 23 24 26 27
56 55 55 55 56 57 58 61 63 64 64 62 61 61 61 58 54 51 48 46 43 38 33 32 29 34 42 45 46 47 48 46 41 40 41 40 37 35 33 32 30 26 25 24 23 23 25 25 23 20 19 17 17 16 14 13 12 10 9 9 9 8 8 8 9 10 12 14 17 18 18 19 19 19 18 16 14 13 13 15 18 20 22 23 24 25 27 27
57 57 57 57 58 60 61 63 64 65 65 64 62 62 62 59 55 51 49 46 44 41 34 32 31 31 40 48 48 49 51 48 44 43 42 41 41 39 36 33 30 29 28 26 24 24 25 26 25 24 22 20 19 17 15 14 14 12 11 12 11 9 8 10 11 11 12 15 17 19 19 20 20 19 18 16 14 12 12 15 18 20 22 23 25 26 26 25
59 59 59 60 60 62 64 65 66 66 66 65 63 63 63 60 56 52 50 47 44 42 37 32 32 32 39 49 52 52 52 50 46 45 44 43 43 42 39 35 32 33 33 30 26 24 24 26 26 26 25 23 21 19 16 15 15 14 13 13 12 11 10 12 13 12 13 16 18 19 20 21 20 19 17 15 14 12 12 14 17 20 22 23 25 25 23 21
61 61 61 62 62 64 66 67 68 68 67 65 64 64 63 60 56 52 50 48 45 43 39 33 32 34 39 48 54 55 55 53 49 47 45 44 44 44 42 38 36 37 36 32 28 25 25 25 25 26 26 25 24 21 17 16 16 15 15 14 13 12 12 13 14 13 13 16 19 20 20 20 19 18 16 15 14 13 12 13 16 20 22 23 24 23 20 17
64 64 63 64 64 66 68 69 70 69 67 66 65 65 64 61 56 52 50 48 46 44 41 35 32 34 39 47 54 57 58 55 51 49 47 45 46 47 46 42 38 37 37 33 27 25 25 24 24 24 24 24 24 23 19 17 18 17 16 15 14 14 15 15 15 14 13 15 18 19 19 18 18 18 16 16 15 14 12 12 14 18 22 23 23 20 16 14
66 66 66 66 66 68 69 71 71 70 68 66 66 65 64 61 56 52 50 48 47 45 42 37 34 35 40 47 53 59 60 58 53 51 49 48 48 50 49 44 39 37 36 32 27 26 26 25 25 24 22 22 23 22 20 18 19 19 18 16 15 15 16 16 16 16 13 13 16 18 18 17 17 18 17 17 17 15 14 14 14 18 21 22 20 17 13 11
68 68 68 67 68 70 72 73 72 71 69 67 66 66 65 61 56 52 50 48 48 46 43 39 36 36 40 46 52 58 61 59 56 53 52 51 50 50 49 46 41 38 36 33 30 29 28 27 26 24 22 22 23 22 21 20 21 21 19 18 15 14 17 17 18 18 16 14 14 16 17 16 17 18 18 18 17 14 15 16 15 18 20 20 18 15 10 8
70 70 70 69 70 72 74 75 74 72 70 68 67 67 65 61 56 52 50 49 48 47 44 41 38 37 40 45 51 57 61 61 58 56 55 53 50 50 50 48 45 41 38 35 33 32 32 29 27 24 23 22 22 23 23 23 23 22 21 19 16 15 19 20 19 20 19 15 14 15 16 16 17 18 19 18 16 14 16 17 17 18 19 19 17 12 8 7
72 72 71 71 72 75 76 76 75 73 71 70 69 67 65 60 55 53 51 50 49 46 44 42 40 39 40 44 50 57 61 62 60 58 58 55 52 51 51 50 47 44 40 37 36 35 34 31 26 24 23 22 22 25 25 24 25 24 22 21 19 19 23 23 21 20 20 17 15 15 15 17 18 18 19 18 15 14 16 17 18 19 19 18 16 12 9 9
74 74 73 73 74 77 78 78 76 74 72 71 70 68 64 59 56 54 52 51 50 47 44 43 41 40 41 44 50 57 61 63 62 61 59 58 55 53 52 51 50 47 43 40 38 37 35 31 28 25 24 23 24 26 27 26 26 24 22 22 22 22 24 25 22 20 20 19 17 15 15 17 19 18 19 18 16 15 16 17 19 20 19 17 16 14 11 10
76 75 74 75 76 78 80 80 78 76 73 72 70 68 64 59 56 54 53 52 50 47 46 44 43 42 42 44 49 57 62 64 64 63 61 59 57 55 53 52 51 48 46 44 41 38 36 33 29 27 25 23 24 27 29 28 27 25 23 23 24 24 25 27 24 19 18 19 19 16 16 18 20 19 19 18 17 16 16 17 19 21 20 18 16 15 13 12
77 77 76 76 78 80 81 81 80 77 75 73 71 68 63 59 57 55 54 53 51 48 46 45 44 43 43 45 49 57 62 65 65 64 63 60 58 57 55 53 53 51 48 46 43 39 38 35 31 28 26 23 24 28 29 28 27 26 24 23 24 25 26 27 25 20 19 20 20 18 17 18 21 21 19 18 17 16 15 17 19 21 21 19 17 16 15 14
79 78 77 78 80 81 82 82 81 78 76 74 71 67 63 60 57 56 56 54 52 50 47 45 45 44 44 46 50 55 60 65 67 65 63 62 59 58 57 55 54 53 49 47 45 42 39 36 33 30 25 23 26 30 29 28 27 27 24 23 24 25 27 28 27 23 21 21 21 19 18 20 23 23 22 20 18 16 16 17 19 21 22 20 19 18 16 15
80 78 78 79 81 82 83 83 82 79 76 74 71 67 63 60 58 57 57 55 53 51 48 44 43 44 44 46 50 55 57 61 66 66 63 62 60 58 58 57 57 54 50 49 47 44 40 37 34 30 26 26 29 30 28 28 28 27 25 24 25 27 28 29 28 26 23 22 21 20 19 21 24 24 23 21 18 17 16 17 19 21 21 20 20 20 18 15
80 79 79 81 83 83 84 84 83 80 77 74 70 66 63 60 59 58 57 55 53 51 48 44 42 43 43 45 51 56 59 59 61 64 63 62 62 59 57 58 59 57 53 51 49 46 42 39 35 31 29 29 29 28 28 29 29 28 26 25 26 28 29 29 29 28 25 22 20 20 19 21 24 24 23 22 19 17 17 17 18 21 21 20 20 21 19 16
81 80 80 82 84 84 85 85 84 81 77 73 69 65 63 60 59 58 57 55 53 50 47 43 40 41 43 46 51 56 62 62 60 63 65 64 64 63 59 58 59 59 56 53 51 48 44 41 37 33 32 30 28 28 30 31 31 30 28 26 27 28 30 30 30 29 26 22 20 20 19 20 23 24 24 23 20 18 18 18 19 20 21 20 19 20 19 17
81 81 82 83 84 85 85 86 84 81 77 73 68 65 63 60 58 58 57 55 53 49 45 42 39 40 43 47 52 56 63 66 63 64 67 66 65 65 63 60 59 60 59 55 53 50 47 43 39 36 33 31 29 29 32 33 33 32 31 29 28 29 29 30 30 28 25 21 20 21 21 21 24 25 24 23 21 19 19 20 22 22 21 19 19 18 18 16
82 82 83 85 86 86 86 87 85 81 76 72 67 64 62 60 58 57 56 55 53 48 43 40 38 39 42 46 53 58 64 69 68 66 68 67 65 66 65 63 61 61 61 58 55 53 49 45 42 38 36 33 32 33 35 36 35 34 33 32 30 29 30 31 30 28 26 23 22 22 22 23 25 25 25 24 22 20 20 21 23 23 21 20 19 18 17 16
82 83 85 86 87 87 88 88 85 80 75 70 66 64 62 60 58 57 55 54 52 47 41 38 37 38 41 46 53 59 65 72 73 71 70 69 67 66 67 66 64 62 62 61 58 54 51 48 45 42 39 36 35 36 37 36 35 36 36 35 32 30 31 33 31 30 29 26 24 24 24 25 26 26 26 25 23 22 22 22 22 22 21 20 19 19 18 17
84 85 86 86 87 88 89 89 85 80 74 69 66 64 61 59 57 56 54 52 50 46 39 36 36 37 40 45 52 59 66 74 76 75 74 72 70 70 69 68 66 64 63 63 61 57 54 51 48 45 42 39 38 38 38 36 37 39 39 37 35 32 32 33 34 34 31 29 27 26 26 27 28 27 27 27 26 24 23 22 22 21 20 19 19 20 19 19
85 86 87 87 88 89 90 89 85 79 73 69 66 63 61 58 56 55 53 51 48 44 38 34 34 36 40 44 51 59 66 75 79 79 78 76 74 73 72 70 68 66 64 64 63 60 56 54 50 47 45 41 39 40 38 37 39 41 40 38 36 35 33 34 36 35 33 32 31 28 26 27 28 27 27 27 27 26 25 23 21 20 19 18 18 18 18 18
87 87 88 89 89 90 90 88 83 77 72 68 66 63 60 58 56 54 51 49 47 43 37 34 33 36 40 44 51 58 66 74 81 82 81 80 78 77 75 73 71 69 66 65 65 62 59 55 52 50 48 44 41 41 40 40 42 44 43 40 37 37 37 36 35 34 33 34 31 27 26 27 26 25 25 26 27 27 25 23 21 20 19 19 18 18 17 17
89 89 90 90 91 91 90 87 81 75 71 67 65 63 60 57 55 53 51 47 44 41 37 34 33 36 40 44 50 58 65 74 81 84 83 82 81 79 78 76 74 71 68 67 67 65 61 58 54 52 51 46 43 43 43 44 45 46 45 42 38 38 40 39 36 33 33 33 29 26 25 25 25 25 26 27 28 29 27 25 23 22 21 21 21 20 19 18
91 91 92 92 92 92 90 86 79 73 69 66 64 62 59 57 55 53 50 46 42 39 37 34 33 35 39 43 48 56 64 72 80 85 86 85 84 81 80 79 77 74 71 69 68 67 63 60 57 54 52 48 44 44 46 48 49 48 46 43 40 39 40 40 38 35 34 34 30 28 27 27 26 26 26 26 29 30 30 28 26 25 24 24 24 24 22 21
93 93 93 93 93 93 90 84 78 72 67 65 63 60 58 56 54 52 50 46 40 36 36 34 33 34 38 42 47 54 62 70 79 86 88 87 86 84 81 80 79 77 74 71 70 68 65 62 59 56 54 50 46 45 48 50 51 49 47 45 43 42 41 41 41 39 38 36 33 31 31 30 29 28 26 25 28 30 31 31 29 27 26 25 26 26 26 24
Wind_Direction
346 343 340 336 332 327 320 311 305 302 301 303 303 302 301 301 304 305 303 301 302 306 312 318 322 329 336 339 341 343 345 347 349 352 350 347 11 97 95 90 81 77 75 70 64 58 52 48 47 48 50 57 68 72 73 75 72 69 69 72 79 88 100 111 113 123 135 140 148 152 157 165 168 175 183 190 200 208 215 225 234 243 253 262 270 276 280 281
349 346 342 338 335 331 327 319 309 301 297 297 298 300 300 299 300 302 303 301 299 300 306 313 318 325 333 337 338 340 343 345 347 352 352 346 331 132 117 105 92 89 84 75 69 64 60 53 52 55 57 61 69 71 69 68 69 69 70 71 81 91 101 114 115 123 137 145 155 157 157 161 170 182 192 199 207 214 222 234 247 257 263 269 274 278 279 281
354 351 347 342 338 334 332 328 318 305 296 293 293 294 297 298 297 298 301 301 297 295 299 307 312 319 328 333 335 337 341 343 344 349 353 344 227 153 131 116 100 94 85 76 69 67 64 58 61 65 64 67 75 78 72 67 66 71 75 74 75 82 93 113 120 128 144 155 159 159 162 170 184 206 217 222 227 233 242 253 261 265 267 270 274 276 278 282
356 355 352 348 343 339 336 333 327 314 299 291 289 290 292 296 296 294 296 298 297 294 294 299 306 312 322 330 331 333 338 341 342 345 351 341 234 167 142 128 114 103 87 80 78 72 65 52 59 66 62 67 75 73 66 67 71 75 83 78 68 68 74 95 122 145 160 170 174 177 189 204 220 233 245 252 251 249 252 259 263 265 267 269 271 273 278 282
356 357 356 354 350 345 341 337 334 326 310 293 286 285 287 291 293 293 292 293 295 294 292 292 298 305 314 324 327 329 334 339 339 340 347 338 250 182 155 149 138 124 101 84 88 79 63 50 46 57 58 59 63 56 45 53 73 79 84 75 60 53 52 61 84 192 191 197 203 211 225 239 247 248 252 256 256 256 257 260 264 267 269 269 271 274 278 282
358 357 357 358 356 352 347 343 339 335 324 305 287 281 282 285 288 290 290 288 290 292 291 288 290 298 306 316 321 325 330 335 337 335 341 335 265 208 183 189 182 153 135 96 68 70 63 62 38 49 58 52 49 44 24 16 48 70 81 73 44 19 7 360 322 278 240 225 225 231 240 248 254 257 259 260 261 261 263 265 268 270 272 274 276 278 281 284
3 359 358 358 359 357 353 349 344 340 334 322 299 282 278 279 282 285 287 286 285 288 290 287 284 289 298 307 314 320 325 330 335 333 333 333 280 232 217 227 222 189 171 200 302 283 78 26 17 37 50 44 36 28 347 322 337 15 26 29 1 333 320 315 303 288 275 264 257 254 254 254 257 261 264 265 265 265 267 269 271 273 276 277 279 280 282 285
5 3 360 358 359 359 358 354 350 345 340 333 317 293 277 274 276 278 282 283 282 283 286 286 282 282 289 298 306 314 321 325 330 330 326 327 298 250 235 238 231 215 222 250 273 274 333 359 359 12 4 357 16 351 310 292 284 281 288 300 305 301 299 299 294 288 283 279 276 272 267 263 262 262 262 263 263 265 267 269 272 275 277 278 279 281 284 286
4 3 2 360 359 359 0 358 354 350 344 338 329 310 286 273 271 273 275 279 280 279 281 283 281 278 281 289 298 306 314 318 324 325 319 315 304 271 247 242 239 230 241 263 264 277 318 325 315 287 271 309 350 334 300 283 282 289 295 297 291 291 294 293 289 286 282 279 277 276 273 270 268 266 264 262 262 263 265 268 272 275 277 278 280 282 284 284
1 1 1 1 359 359 360 1 359 354 348 341 334 324 303 278 268 268 269 273 276 276 275 277 279 276 275 279 288 297 305 311 317 320 315 307 299 286 262 248 245 245 252 258 249 253 279 290 297 293 287 346 353 320 283 273 302 351 350 329 306 297 293 287 284 280 278 276 275 274 273 272 271 270 270 268 267 267 268 270 273 275 277 278 280 281 281 279
0 359 359 359 359 358 359 0 1 358 351 343 335 330 319 292 270 264 265 267 271 273 272 271 274 275 271 270 277 287 295 301 308 312 311 304 296 288 275 258 248 250 260 261 249 245 257 283 301 305 25 52 7 327 289 314 38 29 8 347 330 315 298 285 277 272 271 272 271 271 271 272 273 274 275 273 272 270 270 272 273 273 274 274 276 276 276 276
359 358 357 356 356 357 358 359 360 359 354 346 337 332 327 309 279 263 261 262 264 268 269 267 267 270 268 263 265 275 284 289 296 303 304 300 294 285 276 266 253 248 258 264 256 248 254 274 273 260 82 77 25 3 352 17 24 2 350 343 333 321 303 289 280 275 273 272 271 271 269 267 270 272 273 271 269 271 271 271 270 267 264 263 268 272 272 271
357 357 356 355 354 354 356 357 358 357 355 350 342 334 329 320 294 267 259 258 259 262 265 264 261 264 265 260 256 263 273 279 286 294 297 293 290 283 274 271 260 246 252 262 260 250 242 244 235 218 306 243 3 354 344 350 352 344 342 341 333 321 308 300 295 291 278 263 252 264 268 267 274 275 270 261 257 266 263 248 241 237 237 250 266 268 266 266
354 354 354 354 352 352 353 356 356 355 353 350 346 338 331 325 311 280 261 256 256 257 260 262 258 258 262 258 251 252 261 269 275 284 289 288 284 280 274 272 262 246 247 256 259 251 232 216 217 192 223 254 302 329 333 334 337 337 337 338 331 319 314 318 330 20 94 111 114 108 84 49 33 66 101 113 119 127 138 148 170 197 225 256 269 269 270 274
352 352 352 353 351 350 350 353 354 353 350 348 347 344 337 330 322 299 270 257 254 255 256 259 258 255 258 258 250 245 252 260 265 273 280 282 279 276 270 266 264 249 238 240 243 237 218 210 206 185 226 267 291 308 316 324 331 332 333 337 332 319 316 328 358 39 69 87 113 110 95 83 86 96 103 110 117 124 129 130 142 172 233 272 290 291 297 298
350 349 349 350 350 349 348 350 351 351 348 346 345 346 344 336 327 314 288 263 254 253 253 254 256 253 254 257 251 242 244 251 257 262 267 270 269 267 266 261 260 249 230 222 221 216 206 201 202 208 241 265 281 299 313 318 324 326 326 332 334 325 309 283 332 347 354 58 112 108 101 99 103 108 110 115 117 122 123 117 110 104 92 85 82 84 88 96
348 347 347 348 348 348 347 348 348 348 347 346 346 346 346 341 331 321 304 275 256 251 251 250 251 251 250 253 252 243 240 244 249 254 258 260 257 256 257 254 247 238 224 214 208 204 200 197 210 234 243 260 282 306 318 311 313 319 318 324 335 332 304 231 297 341 1 86 104 103 105 109 112 113 111 109 111 116 122 119 113 103 95 91 90 93 96 101
345 345 345 345 346 346 346 346 346 346 345 345 347 345 344 342 334 324 312 291 263 251 249 247 246 246 246 248 250 245 239 239 242 247 252 254 250 247 248 248 239 228 221 215 209 204 204 207 224 246 244 252 291 319 315 302 303 309 308 313 333 341 318 219 262 352 84 101 104 106 110 114 113 109 103 101 105 115 123 124 116 104 96 94 95 98 101 104
342 343 343 342 343 343 345 344 343 342 342 345 347 345 343 341 336 328 315 301 272 251 247 246 243 242 243 244 246 245 239 237 239 242 246 249 248 245 244 243 238 228 222 221 220 216 216 220 232 249 246 246 295 317 305 297 300 301 299 304 327 353 332 209 182 142 122 114 111 114 115 114 111 107 101 100 109 117 120 118 109 101 98 97 98 100 103 104
340 341 341 341 340 341 343 343 341 339 339 344 346 344 342 340 336 330 318 307 284 256 246 245 244 240 240 242 242 243 240 237 236 239 244 245 245 244 243 241 238 233 227 227 229 226 224 227 236 245 243 250 282 307 303 294 296 293 286 294 309 359 336 202 161 140 130 121 118 121 120 116 113 112 110 108 114 116 115 111 105 102 101 100 100 101 102 102
339 338 339 339 338 338 341 342 340 337 337 341 346 344 341 339 335 330 321 311 295 268 249 245 245 241 237 238 240 240 240 237 234 236 242 243 242 242 242 242 239 237 236 234 233 231 228 228 233 240 244 254 264 284 298 283 279 273 266 287 295 206 194 197 157 137 131 126 124 127 126 124 122 119 115 113 115 114 111 108 105 105 105 104 104 103 102 101
338 337 337 338 337 336 339 340 338 336 334 339 344 343 339 337 334 329 324 315 304 282 257 246 244 242 235 235 239 241 241 239 234 234 237 240 242 241 240 241 240 238 239 239 236 234 233 231 232 237 243 244 236 241 269 261 254 251 255 281 285 214 201 191 157 138 134 130 128 130 129 131 130 123 118 117 115 113 111 110 108 107 107 107 107 106 104 103
337 336 336 337 337 335 337 338 337 334 333 336 341 342 339 336 332 329 325 319 310 294 269 251 244 243 235 232 237 239 240 238 235 233 233 236 240 241 239 240 240 239 238 238 238 236 236 236 234 234 236 230 219 227 250 251 245 242 255 274 269 217 194 173 152 143 141 136 131 129 130 133 132 125 121 120 117 115 114 113 111 110 111 112 112 111 109 108
335 334 334 337 336 334 335 337 335 333 332 334 338 340 338 334 331 328 325 321 315 304 283 257 247 246 238 229 233 236 237 238 236 235 233 233 237 240 240 239 240 240 238 237 237 236 237 238 236 233 237 233 223 231 242 240 235 239 260 266 222 186 176 163 152 149 149 145 138 133 133 134 131 126 123 122 119 117 117 115 114 115 116 116 116 115 113 112
333 333 334 336 336 334 335 335 334 333 332 333 335 337 337 333 330 327 324 322 319 312 295 267 251 248 239 228 231 235 235 236 235 235 234 231 232 238 241 241 240 241 241 238 235 235 236 238 236 233 239 236 230 239 242 237 229 230 257 246 175 171 170 162 156 156 157 154 148 139 136 135 131 127 124 120 116 116 118 119 118 119 120 119 118 117 114 112
331 333 333 335 336 335 334 334 334 333 332 332 333 334 335 332 329 326 323 322 323 317 304 281 255 248 241 229 229 233 233 233 231 233 234 231 228 234 239 241 241 242 243 242 238 236 236 238 236 232 236 234 233 240 243 241 227 219 240 228 171 169 170 166 163 163 162 160 154 146 140 139 136 130 123 117 113 114 118 121 121 121 122 121 120 118 115 112
329 331 332 334 335 335 334 334 333 333 332 331 331 332 333 331 327 325 323 322 323 320 308 292 262 246 242 231 227 230 231 231 229 230 233 231 228 230 234 237 239 239 242 244 242 238 235 238 238 235 236 233 232 240 246 246 231 217 225 217 188 181 181 178 172 166 163 162 158 151 146 146 143 135 127 120 113 112 118 123 125 124 124 123 122 119 115 112
327 329 331 332 333 334 334 334 333 332 331 330 329 330 331 330 326 323 322 321 321 319 309 295 271 246 239 234 228 227 231 230 226 228 231 230 228 229 230 232 235 236 239 242 242 239 236 236 239 239 238 234 232 240 248 244 232 219 211 208 207 203 193 189 183 173 166 164 161 156 152 153 151 144 136 130 122 117 119 124 128 128 127 126 124 121 117 113
326 328 329 331 332 333 333 333 333 332 331 329 328 329 330 328 326 322 320 320 319 317 310 295 277 249 234 233 229 226 230 229 224 225 229 228 227 228 228 228 231 234 236 237 237 237 237 237 239 240 239 237 234 238 244 238 229 223 215 210 214 216 204 193 190 183 172 167 165 162 159 159 159 152 144 139 135 127 123 125 130 131 130 129 128 125 120 116
326 327 328 330 331 332 332 332 332 331 330 328 327 328 329 327 324 320 318 318 317 314 308 294 277 254 233 229 229 227 228 228 223 223 227 228 226 227 227 225 227 231 232 232 232 233 236 237 239 240 240 240 237 236 239 234 227 225 223 219 218 221 214 200 196 191 179 172 169 168 167 165 163 157 148 146 144 137 128 127 131 133 133 132 132 129 123 117
326 327 327 329 330 331 331 331 331 331 329 327 326 326 327 326 322 319 316 316 315 310 304 294 277 258 238 228 227 227 227 226 223 221 225 228 227 226 226 223 224 228 230 230 229 230 234 237 239 241 241 240 238 235 235 232 227 225 223 224 224 224 219 207 201 197 185 175 171 170 171 168 165 160 154 152 151 145 135 129 133 136 136 135 135 131 125 119
325 326 327 328 330 331 331 330 330 330 328 327 325 325 326 324 321 317 314 313 312 307 301 294 278 260 242 230 226 225 225 224 222 220 222 226 227 226 225 222 221 226 230 230 230 232 236 238 240 243 242 239 235 233 232 230 229 226 222 222 224 222 217 210 203 199 191 179 174 172 171 168 167 166 165 162 157 152 146 138 137 140 140 138 137 133 127 123
323 325 326 328 330 330 330 330 329 328 327 326 324 324 325 323 319 316 313 311 309 305 301 293 279 261 244 233 226 224 224 223 220 218 219 223 226 225 224 221 219 224 229 229 231 234 237 238 239 242 242 237 232 230 231 229 227 226 221 220 220 215 211 208 202 200 195 183 177 175 174 173 171 170 171 170 164 158 156 151 146 147 147 144 140 136 130 126
322 324 325 328 329 329 329 329 328 327 326 325 323 323 324 322 318 314 311 309 306 304 300 293 281 264 247 235 228 224 223 222 219 217 218 221 224 225 224 221 218 221 225 226 228 232 235 236 236 238 239 235 229 225 226 225 223 223 221 219 220 213 208 206 203 200 197 188 178 174 176 176 173 172 173 173 170 164 161 161 158 155 156 154 148 140 134 132
321 323 325 327 328 329 329 329 328 326 325 324 323 323 323 320 317 313 309 306 305 303 299 292 282 268 251 238 229 224 223 221 218 217 217 219 222 225 224 220 218 218 219 221 224 228 232 234 234 237 239 235 226 219 220 220 219 220 220 218 218 210 204 204 204 203 201 192 181 174 174 173 171 172 175 176 176 171 165 166 167 164 165 166 161 152 148 150
320 322 324 327 328 328 329 328 327 325 324 323 322 322 322 319 315 311 307 305 304 302 297 290 281 270 255 240 229 224 222 220 217 216 217 217 219 222 223 221 218 217 215 217 221 225 229 231 233 237 241 237 224 214 214 215 216 219 219 217 214 207 203 203 205 207 203 194 185 178 174 173 172 171 176 181 182 177 172 172 174 174 172 174 174 170 165 164
319 321 324 326 327 328 328 328 326 325 323 322 321 321 320 317 313 310 306 305 303 300 295 288 278 269 257 242 229 223 221 219 216 216 217 217 217 219 221 220 219 218 215 214 218 222 225 228 230 232 236 235 224 213 211 213 215 217 218 217 214 210 207 206 207 209 204 196 190 184 177 178 178 175 177 183 183 181 179 178 180 181 180 179 181 181 179 176
318 321 324 326 327 327 327 327 326 324 322 321 320 320 319 315 312 309 306 304 303 300 294 286 277 266 256 243 230 222 219 217 215 215 216 216 217 218 219 220 219 219 217 215 215 217 222 226 227 229 232 231 223 215 212 213 214 215 218 218 215 213 210 206 207 211 210 203 196 188 183 182 181 179 179 183 184 182 184 184 184 185 187 187 187 187 189 188
318 320 323 325 326 327 327 326 325 323 321 320 319 319 317 314 311 308 306 304 303 299 294 285 276 265 253 243 231 221 218 216 214 214 215 215 216 217 218 219 219 219 219 217 214 214 219 223 225 226 228 228 222 216 214 214 214 216 219 219 215 213 209 204 205 209 210 207 200 191 187 184 181 181 183 186 186 185 186 188 187 188 191 193 193 192 193 194
317 320 323 324 325 326 326 325 324 322 320 319 319 318 316 313 311 308 306 305 303 300 294 285 274 264 252 242 231 221 217 215 213 213 214 213 214 216 217 218 219 218 218 218 215 213 215 218 222 224 226 225 220 216 214 214 215 217 220 218 214 210 206 202 204 206 205 205 201 194 190 187 184 183 186 189 188 186 188 191 189 189 193 197 199 197 195 195
316 319 322 323 324 325 325 325 324 322 319 318 318 316 315 313 311 308 306 306 304 300 295 285 273 262 251 240 230 220 214 214 213 212 212 212 213 215 216 217 218 216 216 219 217 213 212 214 218 221 222 222 220 217 214 212 214 217 218 216 210 204 203 204 206 206 204 202 199 196 194 192 188 185 187 190 190 188 190 193 192 192 194 199 202 201 199 199
315 318 321 322 323 324 324 324 323 321 319 318 317 315 314 312 310 308 307 307 305 301 295 285 272 260 248 237 229 219 211 210 212 212 212 212 212 213 215 216 217 215 214 217 218 214 211 212 214 217 220 222 221 217 212 210 212 215 217 217 211 204 202 206 208 207 205 201 197 197 199 197 193 189 188 191 193 190 190 195 197 195 197 200 202 203 206 207
315 318 320 321 322 323 323 323 322 320 318 317 316 314 313 312 310 309 308 307 305 301 294 284 270 257 245 233 226 219 209 205 208 210 210 211 212 212 213 215 215 214 213 215 217 215 211 210 210 214 219 220 219 217 212 210 211 212 215 217 212 206 203 204 207 208 207 202 196 198 201 201 199 194 191 193 196 193 192 195 199 200 199 199 200 205 210 211
315 317 319 320 321 322 322 322 321 320 318 316 315 313 312 312 310 310 309 308 306 301 293 283 269 256 244 232 223 217 208 203 205 207 208 210 211 211 212 214 214 213 212 213 215 215 212 210 208 211 216 218 217 216 211 209 210 212 214 214 211 207 203 202 205 207 206 203 199 199 202 203 203 200 197 197 199 198 197 198 200 202 201 200 202 207 211 211
315 317 318 320 320 321 321 321 320 319 317 315 314 313 312 311 311 310 311 309 306 301 292 281 268 255 244 232 222 216 207 202 203 204 206 207 209 210 211 213 213 212 211 211 213 214 212 209 208 208 212 215 214 212 209 209 211 213 214 215 212 206 202 201 204 206 205 205 205 203 204 205 204 203 201 201 202 202 204 204 202 202 203 204 207 211 215 218
314 316 317 318 319 320 320 320 320 318 316 314 313 312 311 311 311 311 312 311 306 300 291 280 268 256 244 233 223 215 207 202 202 203 204 205 206 208 210 211 211 211 211 210 212 213 210 209 209 207 209 213 212 211 211 211 211 213 215 216 213 206 202 200 203 204 203 206 208 207 208 208 205 204 204 204 205 205 207 208 205 204 206 210 215 220 224 229
314 315 316 317 318 319 319 319 318 317 315 313 312 311 311 311 312 312 313 312 306 299 290 278 266 255 244 234 225 217 209 203 202 202 203 204 205 206 208 209 210 209 210 210 210 211 209 208 208 207 208 211 210 211 213 211 210 214 217 218 214 208 204 201 202 204 202 204 210 209 209 211 208 206 207 206 207 208 209 210 208 207 210 215 221 227 231 235
313 314 315 316 317 318 318 318 317 315 314 312 311 311 311 311 312 313 314 313 306 298 289 277 264 252 242 233 226 218 210 205 203 202 202 204 205 206 206 207 208 208 209 210 209 209 208 207 208 207 207 209 209 211 214 211 210 216 220 221 217 210 205 203 206 206 203 205 210 209 210 214 212 209 210 210 211 212 212 212 210 210 214 220 226 231 235 240
312 313 314 315 316 317 318 317 316 314 312 311 311 310 311 312 313 314 315 313 307 297 287 276 263 251 241 231 225 220 213 207 204 203 203 204 205 206 205 205 206 206 207 208 209 208 206 206 207 208 208 207 207 210 212 211 211 215 221 224 221 212 207 208 211 210 207 209 211 209 213 219 217 215 214 215 216 217 217 217 216 216 221 226 231 234 238 243
312 312 313 314 315 316 317 316 314 313 311 310 310 310 311 312 314 315 315 314 307 296 285 275 262 250 241 232 224 220 215 209 205 204 204 205 206 206 206 205 205 205 205 206 207 207 205 204 206 209 209 207 206 209 211 211 212 215 220 224 223 216 210 210 213 212 213 215 213 211 218 223 223 221 219 218 220 220 220 222 223 225 229 232 235 237 239 243
310 311 312 313 314 315 316 315 313 311 310 309 309 309 311 313 314 315 315 314 306 294 283 274 263 250 241 233 225 220 216 211 207 205 204 205 206 207 207 206 204 204 204 205 206 205 204 203 206 208 209 207 206 208 211 212 214 216 220 223 224 220 214 212 213 213 214 216 214 212 218 222 223 224 222 221 221 221 220 223 225 228 232 236 238 239 241 243
309 310 311 312 314 315 315 313 312 310 309 308 308 309 311 313 315 316 315 313 305 291 280 273 263 251 242 235 226 220 217 213 209 206 205 206 207 207 207 207 206 204 203 204 204 204 203 203 205 207 208 206 205 209 212 214 216 217 219 222 223 223 219 214 212 212 213 215 214 214 216 217 219 222 223 221 222 222 222 224 226 229 232 236 239 241 243 246
Height
10750 10748 10745 10743 10740 10738 10737 10736 10734 10733 10732 10731 10730 10729 10728 10727 10726 10725 10724 10724 10723 10723 10722 10720 10719 10718 10716 10714 10712 10710 10708 10706 10704 10702 10701 10701 10699 10698 10697 10696 10695 10694 10693 10693 10691 10690 10689 10688 10687 10686 10686 10686 10685 10685 10684 10684 10684 10685 10685 10686 10687 10688 10689 10690 10690 10690 10691 10693 10694 10695 10697 10698 10699 10701 10702 10704 10705 10706 10707 10708 10708 10709 10710 10710 10710 10711 10711 10712
10750 10747 10745 10742 10740 10737 10735 10733 10732 10731 10730 10729 10728 10727 10726 10725 10724 10723 10723 10722 10722 10721 10721 10719 10718 10717 10716 10714 10712 10710 10707 10705 10704 10702 10701 10701 10700 10699 10698 10697 10696 10696 10695 10694 10693 10693 10692 10691 10690 10689 10689 10689 10688 10687 10687 10687 10687 10687 10688 10689 10689 10690 10691 10691 10692 10693 10694 10694 10695 10697 10698 10699 10700 10701 10702 10703 10704 10705 10706 10707 10708 10708 10709 10709 10709 10710 10710 10710
10750 10747 10744 10741 10739 10736 10734 10732 10730 10729 10728 10727 10726 10725 10724 10723 10723 10722 10721 10720 10720 10720 10719 10718 10717 10716 10715 10714 10712 10710 10707 10705 10704 10702 10701 10701 10700 10700 10699 10698 10697 10697 10696 10695 10695 10694 10694 10693 10693 10692 10692 10691 10690 10689 10689 10689 10689 10689 10690 10691 10691 10691 10692 10693 10694 10694 10695 10696 10696 10697 10698 10699 10700 10701 10702 10703 10704 10705 10706 10706 10707 10707 10707 10708 10708 10708 10709 10709
10750 10747 10744 10741 10738 10735 10733 10730 10728 10727 10726 10725 10724 10722 10722 10721 10721 10720 10719 10718 10718 10718 10718 10717 10716 10715 10715 10713 10711 10710 10708 10706 10704 10702 10701 10701 10701 10700 10699 10698 10698 10697 10696 10696 10696 10695 10695 10695 10694 10694 10693 10692 10692 10691 10691 10691 10691 10691 10691 10692 10692 10693 10693 10694 10695 10696 10696 10696 10697 10698 10699 10699 10700 10701 10702 10703 10704 10704 10705 10705 10706 10706 10706 10706 10707 10707 10707 10707
10750 10747 10744 10741 10738 10735 10732 10729 10727 10725 10723 10722 10722 10720 10719 10719 10718 10718 10717 10716 10716 10716 10716 10716 10715 10714 10714 10713 10711 10709 10708 10706 10704 10702 10701 10701 10701 10701 10700 10699 10698 10698 10697 10697 10697 10696 10696 10696 10696 10695 10694 10694 10693 10693 10693 10693 10693 10692 10692 10693 10693 10693 10694 10695 10696 10696 10696 10697 10697 10698 10698 10699 10700 10701 10701 10702 10703 10704 10704 10704 10704 10704 10705 10705 10705 10705 10705 10705
10750 10747 10744 10741 10738 10734 10731 10728 10725 10723 10721 10720 10719 10718 10717 10716 10716 10715 10715 10714 10713 10714 10714 10715 10714 10712 10712 10712 10710 10709 10707 10706 10704 10703 10701 10701 10701 10701 10700 10700 10699 10698 10698 10698 10698 10697 10697 10697 10697 10696 10695 10695 10694 10694 10695 10695 10694 10693 10693 10693 10694 10694 10695 10695 10696 10696 10697 10697 10697 10697 10698 10699 10699 10700 10700 10701 10702 10702 10703 10703 10703 10703 10703 10703 10703 10703 10703 10703
10750 10747 10744 10741 10738 10734 10731 10727 10725 10722 10719 10718 10716 10716 10715 10714 10713 10713 10712 10711 10711 10711 10712 10713 10712 10711 10711 10711 10710 10708 10707 10705 10704 10702 10701 10701 10701 10701 10701 10700 10699 10699 10698 10698 10698 10698 10698 10697 10697 10697 10696 10696 10695 10695 10696 10696 10695 10694 10693 10694 10694 10694 10695 10695 10695 10696 10696 10697 10697 10697 10697 10698 10698 10699 10699 10700 10700 10701 10701 10701 10701 10701 10701 10701 10701 10701 10701 10700
10749 10746 10744 10741 10738 10734 10730 10727 10724 10721 10718 10716 10714 10713 10712 10712 10711 10710 10710 10709 10708 10709 10710 10710 10711 10710 10709 10709 10709 10708 10707 10705 10703 10702 10701 10700 10700 10700 10700 10700 10700 10699 10698 10698 10698 10698 10698 10698 10698 10697 10697 10697 10696 10696 10696 10696 10695 10694 10693 10694 10694 10694 10694 10694 10695 10695 10695 10696 10696 10696 10696 10696 10697 10697 10698 10698 10698 10698 10699 10699 10699 10699 10699 10699 10699 10699 10698 10697
10749 10746 10743 10740 10737 10734 10730 10726 10723 10720 10717 10714 10712 10710 10709 10709 10708 10708 10707 10707 10706 10706 10707 10708 10708 10708 10708 10708 10707 10707 10706 10705 10703 10701 10700 10699 10699 10699 10700 10700 10700 10699 10698 10698 10698 10698 10698 10698 10698 10698 10697 10697 10697 10696 10696 10696 10695 10694 10693 10693 10693 10694 10694 10694 10694 10694 10694 10694 10694 10695 10695 10695 10695 10696 10696 10696 10696 10696 10697 10697 10697 10697 10697 10696 10696 10695 10695 10694
10748 10745 10742 10739 10736 10733 10730 10726 10722 10719 10715 10712 10710 10708 10707 10706 10705 10705 10704 10704 10704 10704 10704 10705 10706 10706 10706 10706 10706 10705 10705 10704 10702 10701 10699 10699 10698 10699 10699 10700 10700 10699 10699 10698 10698 10698 10698 10698 10698 10698 10697 10697 10697 10696 10696 10695 10694 10693 10693 10693 10693 10693 10693 10693 10693 10693 10693 10693 10693 10693 10693 10693 10694 10694 10694 10694 10694 10694 10695 10695 10695 10695 10694 10694 10693 10692 10692 10691
10747 10744 10741 10738 10735 10732 10729 10725 10722 10718 10714 10711 10708 10706 10704 10703 10702 10702 10701 10701 10701 10701 10702 10703 10704 10704 10704 10704 10704 10703 10703 10702 10701 10700 10699 10698 10698 10698 10698 10699 10699 10699 10699 10698 10697 10697 10698 10698 10698 10698 10697 10697 10697 10697 10696 10695 10694 10693 10693 10693 10693 10693 10692 10692 10692 10692 10691 10691 10691 10691 10692 10692 10692 10692 10692 10692 10692 10692 10693 10693 10693 10692 10692 10691 10691 10690 10690 10689
10745 10742 10740 10737 10734 10731 10728 10725 10721 10717 10713 10710 10706 10704 10702 10701 10699 10699 10698 10698 10698 10698 10699 10700 10701 10701 10701 10701 10702 10702 10701 10701 10700 10699 10698 10697 10697 10697 10697 10698 10698 10699 10699 10698 10697 10697 10697 10698 10698 10698 10697 10697 10697 10697 10696 10695 10694 10693 10693 10693 10693 10692 10691 10691 10691 10690 10690 10689 10689 10690 10690 10690 10691 10691 10691 10690 10690 10691 10691 10691 10691 10690 10690 10690 10689 10689 10689 10688
10743 10740 10738 10735 10733 10730 10727 10724 10720 10716 10712 10708 10705 10702 10700 10698 10697 10695 10695 10694 10695 10695 10696 10697 10698 10698 10698 10698 10700 10700 10700 10699 10699 10698 10696 10696 10696 10696 10696 10697 10697 10698 10698 10698 10697 10697 10697 10697 10698 10697 10697 10697 10697 10697 10696 10695 10694 10694 10693 10693 10692 10691 10691 10690 10690 10689 10689 10688 10688 10689 10689 10689 10689 10689 10689 10689 10689 10690 10690 10690 10690 10690 10690 10689 10689 10688 10688 10688
10741 10738 10736 10734 10731 10728 10726 10723 10719 10715 10711 10707 10703 10700 10698 10696 10694 10693 10691 10691 10691 10692 10693 10694 10696 10696 10695 10695 10698 10699 10698 10697 10697 10696 10695 10695 10695 10695 10695 10695 10696 10696 10697 10697 10696 10696 10697 10697 10697 10697 10697 10697 10697 10697 10696 10695 10695 10694 10693 10693 10692 10691 10690 10690 10689 10689 10689 10689 10688 10688 10689 10689 10689 10689 10689 10689 10689 10690 10690 10690 10690 10690 10689 10689 10688 10688 10688 10687
10739 10736 10733 10731 10729 10726 10724 10721 10718 10714 10709 10705 10701 10698 10696 10694 10692 10690 10689 10688 10688 10689 10690 10692 10693 10694 10692 10692 10695 10697 10697 10696 10696 10695 10695 10694 10694 10694 10694 10694 10694 10695 10696 10696 10696 10696 10696 10697 10697 10697 10697 10697 10697 10697 10696 10695 10695 10694 10693 10693 10692 10691 10690 10690 10690 10690 10689 10689 10689 10688 10688 10689 10689 10689 10689 10690 10690 10690 10691 10691 10690 10690 10689 10689 10688 10688 10687 10687
10737 10734 10731 10729 10726 10724 10722 10719 10716 10712 10708 10703 10699 10696 10694 10692 10689 10687 10686 10686 10686 10686 10687 10689 10690 10691 10690 10690 10691 10694 10695 10695 10695 10694 10694 10694 10694 10694 10693 10693 10693 10694 10694 10695 10695 10696 10696 10696 10696 10697 10697 10697 10697 10697 10696 10695 10694 10694 10693 10693 10692 10691 10691 10691 10691 10690 10690 10690 10689 10688 10688 10688 10690 10691 10691 10691 10691 10691 10691 10691 10691 10691 10690 10689 10689 10688 10688 10688
10735 10732 10728 10726 10724 10721 10719 10717 10715 10711 10706 10702 10698 10694 10691 10689 10687 10685 10683 10682 10683 10683 10683 10685 10686 10688 10688 10687 10688 10691 10693 10694 10693 10692 10692 10693 10693 10693 10693 10693 10692 10692 10693 10694 10695 10696 10696 10696 10696 10696 10697 10697 10697 10696 10695 10695 10695 10694 10694 10693 10692 10691 10691 10691 10691 10691 10691 10691 10690 10689 10688 10689 10690 10691 10692 10692 10692 10692 10692 10692 10692 10691 10691 10690 10690 10689 10689 10689
10732 10730 10726 10723 10721 10718 10716 10715 10712 10709 10704 10700 10696 10692 10689 10687 10684 10682 10680 10679 10679 10679 10679 10680 10681 10683 10684 10684 10685 10687 10689 10691 10692 10691 10690 10691 10692 10692 10692 10692 10692 10692 10693 10693 10694 10695 10695 10695 10696 10696 10697 10697 10697 10695 10695 10695 10695 10695 10694 10693 10692 10691 10691 10691 10691 10691 10691 10691 10691 10691 10690 10690 10690 10691 10692 10693 10693 10693 10693 10693 10693 10692 10691 10691 10691 10691 10691 10691
10729 10727 10724 10721 10718 10715 10713 10712 10710 10706 10701 10697 10694 10690 10686 10684 10681 10679 10676 10675 10675 10674 10674 10674 10677 10679 10680 10681 10682 10683 10685 10687 10689 10689 10689 10689 10690 10690 10690 10691 10691 10691 10692 10693 10693 10694 10694 10694 10695 10695 10696 10696 10696 10695 10695 10695 10695 10695 10694 10693 10692 10692 10691 10691 10691 10691 10691 10691 10691 10691 10691 10691 10691 10691 10693 10694 10695 10695 10695 10694 10693 10693 10693 10693 10693 10693 10693 10693
10726 10724 10721 10718 10715 10712 10709 10708 10706 10703 10699 10695 10691 10688 10684 10681 10679 10675 10673 10672 10671 10670 10669 10669 10672 10675 10677 10678 10678 10679 10682 10683 10686 10687 10686 10687 10688 10689 10689 10689 10690 10690 10691 10692 10692 10693 10693 10693 10694 10695 10695 10696 10696 10695 10695 10695 10695 10695 10694 10693 10692 10692 10692 10692 10692 10692 10692 10691 10691 10692 10692 10692 10692 10692 10694 10696 10697 10697 10696 10695 10695 10694 10694 10695 10695 10695 10695 10695
10723 10720 10718 10715 10712 10708 10706 10704 10702 10699 10696 10692 10689 10685 10681 10678 10676 10672 10669 10668 10668 10666 10665 10665 10667 10670 10674 10675 10675 10677 10678 10680 10683 10684 10684 10684 10686 10687 10687 10688 10688 10689 10690 10691 10691 10691 10692 10692 10693 10694 10694 10695 10695 10695 10695 10695 10695 10694 10694 10694 10693 10692 10692 10692 10692 10693 10692 10692 10692 10692 10692 10693 10693 10694 10696 10697 10699 10698 10698 10697 10696 10696 10696 10697 10697 10697 10697 10697
10719 10716 10714 10712 10708 10705 10702 10700 10698 10695 10692 10689 10686 10682 10678 10675 10672 10669 10665 10663 10664 10663 10661 10661 10662 10665 10670 10672 10673 10675 10675 10676 10679 10680 10680 10682 10683 10684 10685 10686 10687 10687 10688 10689 10690 10690 10691 10691 10692 10693 10693 10694 10695 10695 10694 10694 10694 10694 10694 10693 10693 10693 10693 10693 10693 10693 10693 10693 10693 10693 10693 10694 10695 10696 10697 10699 10700 10700 10700 10699 10698 10698 10698 10699 10699 10699 10699 10699
10716 10713 10710 10708 10705 10701 10698 10696 10694 10691 10687 10685 10683 10679 10675 10672 10668 10665 10661 10658 10659 10660 10658 10656 10656 10659 10666 10671 10672 10671 10670 10672 10675 10676 10678 10680 10681 10682 10683 10684 10685 10685 10686 10687 10688 10689 10690 10690 10691 10692 10692 10693 10694 10694 10694 10694 10694 10694 10694 10693 10693 10693 10693 10693 10693 10693 10694 10694 10694 10695 10695 10696 10697 10698 10699 10700 10701 10702 10702 10701 10700 10700 10700 10701 10701 10701 10701 10701
10713 10709 10706 10704 10701 10697 10694 10692 10689 10686 10683 10680 10678 10675 10671 10668 10664 10661 10658 10654 10654 10656 10655 10652 10652 10655 10662 10668 10668 10665 10666 10670 10672 10673 10675 10677 10678 10679 10680 10682 10683 10683 10684 10685 10686 10687 10688 10689 10689 10690 10691 10692 10693 10693 10693 10694 10694 10694 10693 10693 10693 10693 10693 10693 10694 10694 10694 10695 10695 10696 10696 10697 10698 10699 10700 10701 10702 10703 10703 10703 10702 10702 10703 10703 10704 10704 10703 10703
10709 10706 10702 10700 10698 10693 10690 10687 10685 10682 10679 10676 10673 10670 10667 10664 10660 10656 10654 10651 10650 10651 10650 10649 10648 10650 10657 10663 10662 10661 10664 10666 10667 10669 10671 10673 10675 10677 10678 10679 10680 10682 10682 10683 10684 10686 10687 10687 10688 10689 10690 10691 10692 10693 10693 10693 10693 10693 10693 10693 10693 10693 10694 10694 10694 10695 10695 10696 10697 10697 10698 10699 10700 10701 10702 10702 10703 10704 10705 10705 10704 10704 10705 10705 10706 10706 10705 10705
10705 10702 10698 10695 10693 10690 10686 10683 10680 10677 10674 10671 10668 10665 10662 10659 10655 10652 10649 10647 10646 10646 10644 10644 10645 10645 10651 10657 10657 10658 10660 10659 10662 10666 10667 10670 10673 10675 10676 10677 10678 10679 10680 10680 10682 10684 10685 10685 10687 10688 10689 10690 10691 10692 10693 10693 10693 10693 10693 10693 10693 10694 10694 10695 10695 10696 10696 10697 10698 10698 10699 10700 10701 10702 10703 10704 10705 10706 10706 10706 10706 10705 10706 10707 10707 10707 10707 10706
10701 10698 10694 10691 10688 10685 10682 10679 10675 10672 10669 10666 10663 10660 10657 10654 10650 10647 10644 10642 10641 10641 10639 10638 10640 10641 10644 10649 10652 10653 10653 10653 10659 10662 10662 10667 10670 10671 10672 10674 10675 10677 10677 10678 10680 10681 10683 10684 10686 10687 10688 10689 10690 10691 10692 10692 10692 10692 10693 10693 10694 10694 10695 10696 10696 10697 10697 10698 10699 10699 10700 10701 10702 10703 10704 10705 10706 10707 10708 10707 10707 10707 10707 10708 10709 10709 10708 10708
10696 10694 10691 10686 10683 10680 10678 10675 10671 10667 10664 10661 10658 10655 10652 10648 10645 10642 10639 10637 10636 10636 10634 10632 10633 10636 10638 10642 10645 10647 10646 10649 10656 10658 10658 10663 10666 10667 10668 10670 10672 10675 10675 10676 10677 10679 10680 10682 10684 10685 10686 10688 10688 10689 10691 10691 10692 10692 10692 10692 10693 10694 10695 10696 10697 10698 10698 10699 10700 10700 10700 10702 10703 10703 10704 10705 10706 10708 10709 10709 10708 10708 10708 10709 10710 10710 10710 10710
10691 10689 10686 10682 10678 10674 10672 10670 10667 10663 10659 10656 10652 10650 10647 10643 10640 10636 10634 10632 10630 10630 10629 10627 10627 10630 10633 10634 10638 10640 10640 10644 10651 10653 10653 10657 10660 10662 10664 10667 10670 10672 10672 10673 10675 10677 10678 10680 10682 10683 10685 10686 10687 10688 10689 10690 10690 10691 10691 10691 10692 10693 10694 10696 10697 10698 10699 10699 10700 10700 10701 10702 10703 10704 10704 10705 10707 10708 10709 10709 10709 10709 10709 10710 10710 10711 10711 10711
10686 10683 10680 10677 10673 10669 10665 10663 10661 10658 10654 10650 10647 10644 10641 10637 10634 10631 10628 10626 10625 10623 10622 10622 10621 10623 10626 10627 10630 10633 10634 10638 10644 10648 10649 10652 10655 10657 10660 10664 10667 10667 10668 10670 10672 10675 10676 10678 10679 10681 10682 10684 10685 10686 10687 10688 10689 10690 10691 10691 10691 10693 10694 10695 10696 10697 10698 10699 10700 10701 10701 10702 10703 10704 10705 10706 10707 10709 10710 10710 10710 10710 10710 10710 10711 10711 10711 10712
10681 10678 10675 10672 10668 10664 10660 10657 10655 10652 10649 10645 10642 10639 10636 10632 10628 10625 10622 10621 10620 10618 10616 10616 10615 10616 10618 10620 10621 10624 10627 10632 10638 10643 10645 10647 10650 10652 10655 10658 10661 10662 10665 10668 10671 10674 10675 10676 10677 10678 10680 10681 10683 10684 10686 10687 10688 10689 10690 10690 10691 10692 10693 10694 10696 10697 10698 10699 10700 10701 10702 10703 10704 10704 10705 10706 10708 10709 10710 10711 10711 10710 10710 10711 10711 10712 10712 10712
10676 10673 10670 10666 10662 10659 10655 10652 10648 10646 10643 10639 10636 10633 10630 10627 10623 10620 10616 10615 10614 10611 10609 10609 10608 10608 10610 10612 10613 10616 10619 10625 10632 10637 10640 10642 10644 10646 10648 10652 10657 10660 10663 10667 10671 10673 10674 10675 10676 10676 10678 10679 10681 10682 10684 10685 10687 10688 10688 10689 10690 10690 10692 10694 10695 10697 10698 10699 10700 10701 10702 10703 10703 10704 10705 10706 10707 10709 10710 10711 10711 10711 10711 10711 10711 10712 10713 10713
10671 10667 10664 10661 10657 10653 10650 10647 10643 10640 10637 10634 10631 10628 10624 10621 10617 10614 10611 10609 10607 10604 10602 10602 10601 10601 10601 10603 10606 10609 10612 10618 10625 10631 10634 10635 10636 10639 10643 10650 10656 10659 10662 10667 10671 10672 10672 10673 10674 10674 10676 10677 10679 10680 10682 10684 10685 10686 10687 10688 10688 10689 10690 10693 10695 10696 10698 10699 10699 10700 10701 10702 10702 10703 10704 10706 10707 10708 10710 10711 10711 10712 10711 10711 10712 10712 10713 10714
10665 10662 10658 10655 10651 10647 10644 10641 10637 10634 10631 10628 10625 10622 10618 10615 10611 10608 10605 10603 10601 10598 10595 10594 10593 10593 10593 10595 10599 10603 10606 10611 10620 10625 10627 10629 10631 10635 10640 10647 10652 10655 10658 10663 10667 10669 10669 10670 10671 10672 10673 10675 10676 10678 10680 10682 10683 10684 10685 10686 10687 10688 10689 10691 10693 10695 10697 10698 10698 10699 10700 10700 10701 10703 10704 10705 10707 10708 10709 10710 10711 10712 10712 10712 10712 10713 10714 10715
10659 10656 10652 10649 10645 10641 10637 10635 10631 10627 10624 10621 10618 10615 10612 10609 10605 10602 10598 10596 10594 10591 10588 10586 10585 10585 10586 10588 10592 10596 10599 10605 10613 10618 10620 10624 10627 10630 10635 10642 10647 10649 10653 10657 10661 10664 10665 10666 10668 10670 10672 10673 10674 10676 10678 10679 10681 10682 10683 10685 10686 10687 10688 10690 10691 10693 10695 10697 10697 10698 10698 10699 10701 10702 10704 10705 10707 10708 10709 10710 10711 10711 10712 10712 10712 10713 10714 10715
10653 10649 10646 10643 10639 10634 10631 10628 10625 10621 10617 10614 10611 10609 10606 10602 10598 10595 10591 10589 10587 10585 10581 10579 10577 10577 10578 10581 10584 10588 10592 10598 10605 10610 10613 10618 10621 10624 10629 10636 10642 10645 10648 10652 10655 10658 10660 10663 10666 10668 10670 10671 10672 10673 10675 10677 10678 10680 10681 10683 10684 10685 10686 10687 10689 10691 10693 10695 10696 10697 10697 10698 10700 10701 10703 10705 10706 10707 10708 10709 10710 10711 10712 10712 10712 10713 10714 10715
10646 10643 10640 10636 10632 10628 10624 10621 10618 10614 10611 10607 10604 10602 10599 10595 10591 10587 10584 10581 10579 10577 10573 10571 10570 10569 10570 10573 10576 10579 10584 10591 10597 10602 10607 10611 10615 10619 10624 10630 10636 10641 10644 10646 10648 10652 10656 10660 10663 10665 10666 10668 10670 10671 10672 10674 10676 10678 10680 10681 10682 10683 10684 10686 10688 10690 10692 10694 10695 10696 10696 10697 10699 10700 10701 10703 10705 10706 10707 10708 10709 10710 10711 10712 10712 10713 10714 10715
10639 10636 10633 10629 10625 10621 10617 10613 10610 10607 10603 10600 10597 10594 10591 10588 10583 10580 10576 10573 10571 10568 10565 10562 10561 10561 10561 10564 10567 10571 10576 10583 10589 10594 10600 10605 10610 10615 10620 10625 10630 10636 10640 10641 10644 10648 10652 10656 10659 10661 10663 10665 10667 10669 10670 10672 10674 10676 10678 10679 10680 10681 10683 10685 10687 10689 10691 10693 10694 10695 10695 10696 10697 10699 10700 10702 10703 10705 10706 10707 10708 10709 10710 10711 10712 10713 10714 10715
10632 10629 10626 10622 10618 10615 10611 10606 10602 10599 10595 10592 10590 10587 10583 10579 10576 10572 10568 10564 10562 10559 10557 10553 10551 10552 10552 10554 10558 10563 10568 10574 10581 10588 10593 10599 10605 10610 10614 10620 10625 10630 10634 10637 10640 10644 10648 10651 10655 10657 10660 10662 10664 10666 10667 10670 10672 10674 10675 10677 10678 10680 10681 10683 10685 10687 10689 10691 10693 10694 10694 10695 10696 10697 10699 10700 10702 10703 10705 10706 10707 10708 10709 10711 10712 10713 10713 10714
10624 10621 10618 10615 10611 10607 10604 10600 10596 10592 10588 10584 10581 10578 10575 10571 10567 10563 10559 10555 10552 10549 10547 10544 10542 10542 10544 10545 10549 10555 10561 10567 10574 10581 10587 10593 10599 10604 10609 10614 10619 10624 10630 10633 10636 10640 10643 10647 10651 10654 10657 10660 10661 10662 10664 10667 10670 10672 10674 10675 10677 10678 10680 10682 10683 10684 10687 10689 10691 10692 10693 10693 10694 10695 10697 10699 10701 10702 10704 10705 10706 10707 10709 10710 10711 10712 10713 10714
10617 10613 10610 10607 10603 10600 10596 10592 10589 10585 10581 10577 10573 10570 10566 10563 10559 10554 10550 10546 10542 10539 10536 10534 10533 10533 10535 10537 10540 10546 10553 10561 10569 10575 10582 10588 10593 10598 10603 10608 10612 10619 10625 10628 10631 10636 10640 10643 10647 10651 10654 10656 10656 10659 10662 10664 10667 10670 10672 10673 10675 10676 10678 10680 10681 10683 10685 10687 10689 10690 10691 10692 10693 10694 10696 10698 10700 10701 10702 10704 10705 10706 10708 10709 10710 10712 10713 10713
10609 10606 10603 10599 10595 10592 10589 10585 10581 10577 10573 10570 10566 10562 10558 10554 10550 10545 10541 10537 10533 10529 10526 10524 10523 10524 10526 10528 10532 10537 10545 10554 10562 10570 10576 10581 10587 10592 10597 10601 10606 10613 10619 10623 10627 10632 10637 10640 10643 10647 10649 10651 10654 10657 10659 10661 10664 10667 10669 10671 10673 10674 10676 10678 10680 10682 10683 10685 10687 10689 10690 10691 10692 10694 10695 10697 10698 10700 10701 10703 10704 10706 10707 10708 10709 10711 10712 10712
10600 10597 10595 10591 10587 10584 10581 10577 10573 10569 10565 10562 10558 10554 10550 10546 10542 10537 10532 10528 10524 10520 10517 10514 10514 10515 10517 10519 10523 10529 10537 10545 10552 10560 10566 10572 10578 10585 10590 10594 10600 10607 10613 10618 10622 10627 10632 10636 10640 10643 10645 10648 10652 10655 10656 10658 10661 10664 10666 10669 10671 10672 10673 10676 10679 10681 10682 10684 10686 10687 10689 10691 10692 10693 10695 10696 10697 10699 10700 10701 10703 10705 10706 10707 10709 10710 10711 10711
10592 10588 10586 10583 10580 10576 10572 10569 10565 10561 10557 10554 10550 10546 10541 10538 10534 10529 10523 10518 10515 10512 10508 10506 10505 10506 10509 10511 10514 10520 10529 10536 10542 10548 10555 10563 10570 10576 10582 10588 10594 10600 10607 10612 10617 10622 10628 10632 10636 10638 10641 10644 10649 10652 10653 10655 10657 10661 10664 10666 10668 10670 10672 10674 10677 10679 10681 10682 10683 10685 10687 10689 10690 10692 10694 10695 10696 10698 10699 10700 10702 10703 10705 10706 10707 10708 10709 10710
10583 10580 10577 10574 10572 10568 10564 10561 10557 10553 10549 10545 10541 10538 10534 10530 10526 10521 10515 10509 10505 10503 10500 10498 10498 10499 10501 10504 10507 10512 10520 10527 10533 10539 10546 10553 10560 10567 10575 10581 10587 10593 10600 10606 10611 10616 10622 10628 10631 10633 10636 10640 10644 10647 10649 10651 10655 10658 10661 10663 10665 10667 10669 10672 10675 10677 10678 10680 10681 10682 10684 10686 10688 10690 10692 10693 10695 10696 10698 10699 10701 10702 10703 10704 10705 10706 10708 10709
10575 10571 10568 10565 10563 10560 10556 10553 10549 10546 10542 10537 10533 10530 10526 10522 10517 10513 10508 10502 10496 10494 10493 10491 10491 10492 10495 10498 10500 10504 10512 10518 10525 10532 10538 10544 10551 10558 10566 10572 10579 10586 10593 10600 10605 10610 10617 10622 10625 10629 10631 10634 10639 10642 10644 10649 10652 10655 10658 10660 10663 10664 10666 10668 10672 10673 10675 10677 10678 10680 10682 10683 10685 10687 10689 10691 10693 10695 10696 10698 10699 10700 10701 10702 10703 10704 10706 10707
10566 10563 10560 10557 10554 10551 10547 10543 10540 10537 10533 10529 10526 10522 10519 10515 10510 10505 10501 10495 10489 10486 10486 10485 10485 10486 10488 10492 10494 10498 10504 10511 10516 10523 10530 10536 10542 10549 10557 10564 10572 10580 10586 10592 10598 10605 10611 10616 10620 10624 10626 10629 10634 10637 10641 10646 10649 10651 10654 10657 10660 10662 10663 10666 10667 10669 10671 10674 10675 10677 10679 10680 10682 10684 10685 10688 10690 10692 10694 10695 10697 10698 10699 10700 10701 10702 10704 10705
10557 10555 10552 10549 10546 10543 10539 10535 10531 10527 10524 10521 10517 10514 10511 10507 10503 10498 10493 10488 10482 10479 10479 10479 10479 10479 10481 10485 10488 10492 10498 10504 10509 10515 10522 10528 10534 10540 10548 10556 10564 10572 10579 10585 10592 10598 10605 10610 10615 10619 10621 10625 10629 10634 10638 10643 10645 10647 10650 10653 10657 10659 10661 10663 10664 10665 10668 10670 10671 10674 10677 10678 10680 10682 10683 10685 10687 10689 10691 10692 10694 10695 10696 10698 10699 10700 10701 10702
10548 10546 10543 10541 10538 10535 10532 10527 10523 10518 10515 10512 10508 10505 10503 10500 10496 10491 10487 10482 10476 10472 10472 10473 10473 10473 10475 10478 10482 10486 10491 10497 10503 10509 10515 10521 10527 10534 10541 10548 10556 10564 10571 10578 10585 10592 10599 10604 10610 10613 10616 10620 10626 10630 10635 10639 10641 10643 10645 10648 10653 10656 10658 10660 10661 10664 10666 10667 10669 10673 10676 10677 10679 10681 10682 10684 10685 10686 10687 10689 10691 10692 10694 10695 10697 10698 10699 10700
10538 10536 10535 10532 10530 10527 10524 10519 10515 10511 10507 10503 10500 10497 10494 10491 10488 10484 10480 10476 10470 10466 10466 10467 10468 10468 10469 10471 10475 10480 10485 10490 10496 10503 10509 10515 10521 10528 10535 10541 10548 10556 10564 10571 10578 10585 10593 10599 10604 10607 10611 10616 10622 10626 10630 10634 10636 10638 10640 10643 10648 10652 10655 10657 10660 10663 10665 10666 10669 10673 10674 10675 10678 10679 10681 10682 10683 10684 10685 10686 10687 10689 10691 10692 10694 10696 10697 10698
10527 10526 10525 10523 10521 10519 10515 10511 10507 10503 10499 10495 10492 10489 10486 10483 10480 10476 10473 10469 10465 10461 10460 10461 10462 10462 10463 10466 10470 10474 10479 10485 10491 10497 10503 10509 10515 10522 10529 10536 10542 10549 10556 10564 10571 10579 10587 10593 10597 10602 10607 10613 10618 10622 10625 10628 10630 10632 10635 10638 10643 10648 10651 10654 10657 10661 10662 10663 10666 10669 10671 10673 10675 10676 10679 10680 10681 10682 10683 10684 10685 10687 10689 10690 10691 10693 10695 10696
10518 10516 10514 10513 10511 10509 10506 10502 10499 10496 10492 10488 10485 10482 10479 10475 10472 10470 10466 10462 10459 10456 10454 10455 10457 10457 10458 10460 10464 10469 10474 10480 10486 10492 10497 10503 10509 10516 10523 10530 10536 10542 10549 10556 10564 10573 10581 10586 10591 10597 10603 10608 10613 10617 10620 10623 10625 10628 10631 10634 10639 10643 10647 10650 10653 10656 10658 10660 10663 10665 10667 10669 10671 10673 10676 10678 10679 10680 10682 10683 10684 10686 10687 10688 10690 10691 10692 10694